一网星座-0513星 (ONEWEB-0513 )

导读 | 星芒AI

ONEWEB-0513 是 OneWeb 卫星星座计划中的一颗低轨通信卫星,旨在为全球提供高速互联网服务。该卫星采用标准化设计,由阿丽亚娜集团制造,于2022年5月13日搭载联盟号火箭发射升空。作为 OneWeb 扩展其全球覆盖网络的一部分,该卫星运行在约1200公里高度的近极地轨道,支持偏远地区和航空、航海等移动通信需求。此次发射进一步推动了 OneWeb 恢复并扩大其卫星互联网业务的进程。

基本信息
目录编号:
54131
目录名称:
ONEWEB-0513
国际标识:
2022-138U
轨道中心:
EARTH
卫星名称:
一网星座-0513星
卫星全名:
一网星座-0513星 (ONEWEB-0513 )
卫星状态:
在轨 (已飞行1150 天)
发射日期:
2022-10-22 UTC
国别 :
英国 (GB)
星等 :
--
轨道信息
数据来源 国际轨道数据
星历时间: 2025-12-15T06:14:32+0800
20小时前
查看轨道信息
半长轴: 7561.866km
偏心率: 0.0002699
轨道倾角: 87.921°
近地点辐角 88.562°
升交点赤经 341.600°
平近点角 271.583°
近地点: 1181.69km
远地点: 1185.772km
周期: 109.069分钟
每日圈数: 13.202595
详细信息
平衡模式:
三轴稳定
覆盖范围:
全球
运营商:
一网卫星公司
运营商所在国:
英国
制造商(研发单位):
一网卫星公司
制造商所在国:
英国
使用方式:
暂无
卫星简介
OneWeb卫星网络由648颗重约125公斤的微型卫星组成,运行在1200公里的轨道上。 每颗卫星都能够提供至少每秒8千兆位的吞吐量,以使用其高吞吐量的Ku频段有效载荷为家庭和移动平台提供互联网接入。该卫星仍在工作。
2D轨道图
3D轨道图
轨道高度分析图
轨道倾角分析图
轨道综合分析图
查看轨道综合分析图